EW1631 Weather Reports


time (UTC)temp
F
wind
direction
speed
knots
gust
knots
rain 1hr
in
rain 24hr
in
rain mn
in
humidity
%
barometer
mb
20260905164553 91 202 0.0 0.0 0.00 0.00 0.00 13 1009.6
20260905163050 91 202 0.0 0.0 0.00 0.00 0.00 13 1009.3
20260905161552 90 202 0.9 2.6 0.00 0.00 0.00 12 1009.4
20260905160045 89 262 0.0 4.3 0.00 0.00 0.00 11 1009.5
20260905154544 88 250 0.0 3.5 0.00 0.00 0.00 9 1009.3
20260905153041 88 291 0.9 7.0 0.00 0.00 0.00 8 1009.3
20260905151539 87 290 1.7 9.6 0.00 0.00 0.00 9 1009.0
20260905150042 87 273 2.6 6.1 0.00 0.00 0.00 9 1009.1
20260905144543 87 293 5.2 9.6 0.00 0.00 0.00 8 1008.9
20260905143037 86 302 6.1 9.6 0.00 0.00 0.00 8 1008.9
20260905141541 84 288 2.6 6.1 0.00 0.00 0.00 9 1008.6
20260905140027 84 256 5.2 8.7 0.00 0.00 0.00 8 1008.5
20260905134523 83 302 3.5 7.8 0.00 0.00 0.00 8 1008.4
20260905133020 82 302 6.1 9.6 0.00 0.00 0.00 8 1008.1
20260905131539 82 285 2.6 4.3 0.00 0.00 0.00 8 1008.1
20260905130017 82 300 0.9 3.5 0.00 0.00 0.00 8 1007.9
20260905124533 83 324 0.0 4.3 0.00 0.00 0.00 7 1007.8
20260905123013 84 323 5.2 9.6 0.00 0.00 0.00 7 1007.7
20260905121522 84 259 5.2 10.4 0.00 0.00 0.00 7 1007.4
20260905120012 84 296 3.5 11.3 0.00 0.00 0.00 7 1007.4
20260905114530 84 292 4.3 7.8 0.00 0.00 0.00 8 1007.4
20260905113010 84 311 3.5 6.1 0.00 0.00 0.00 8 1007.3
20260905111515 84 302 0.9 5.2 0.00 0.00 0.00 8 1007.4
20260905110009 84 298 2.6 7.0 0.00 0.00 0.00 8 1007.5
20260905104507 85 284 6.1 12.2 0.00 0.00 0.00 8 1007.5
20260905103016 85 298 5.2 10.4 0.00 0.00 0.00 9 1007.6
20260905101506 85 281 7.0 12.2 0.00 0.00 0.00 9 1007.5
20260905100001 85 290 7.8 13.9 0.00 0.00 0.00 10 1007.6
20260905094600 85 304 7.8 14.8 0.00 0.00 0.00 10 1007.7
20260905093102 85 297 8.7 14.8 0.00 0.00 0.00 10 1007.6
20260905091614 85 293 10.4 16.5 0.00 0.00 0.00 11 1007.6
20260905090056 85 284 8.7 15.6 0.00 0.00 0.00 11 1007.7
20260905084611 85 292 7.8 16.5 0.00 0.00 0.00 11 1007.7
20260905083052 86 289 10.4 17.4 0.00 0.00 0.00 11 1007.8
20260905081556 86 286 9.6 17.4 0.00 0.00 0.00 11 1007.8
20260905080053 86 292 8.7 15.6 0.00 0.00 0.00 11 1007.9
20260905074555 86 309 9.6 16.5 0.00 0.00 0.00 11 1007.9
20260905073047 86 311 8.7 16.5 0.00 0.00 0.00 14 1007.8
20260905071544 86 300 8.7 14.8 0.00 0.00 0.00 15 1007.5
20260905070041 86 296 9.6 18.2 0.00 0.00 0.00 14 1007.5
20260905064539 87 303 9.6 13.0 0.00 0.00 0.00 14 1007.3
20260905063038 87 277 9.6 15.6 0.00 0.00 0.00 14 1007.4
20260905061539 87 297 10.4 19.1 0.00 0.00 0.00 16 1007.2
20260905060039 86 310 10.4 18.2 0.00 0.00 0.00 17 1007.2
20260905054538 86 263 9.6 20.9 0.00 0.00 0.00 18 1007.0
20260905053037 86 286 11.3 20.0 0.00 0.00 0.00 18 1006.9
20260905051540 87 287 10.4 20.9 0.00 0.00 0.00 17 1006.7
20260905050139 87 286 8.7 19.1 0.00 0.00 0.00 18 1006.8
20260905044537 87 302 11.3 19.1 0.00 0.00 0.00 19 1006.7
20260905043037 87 276 12.2 26.1 0.00 0.00 0.00 19 1006.7
20260905041538 87 261 11.3 21.7 0.00 0.00 0.00 20 1006.6
20260905040033 87 298 11.3 20.0 0.00 0.00 0.00 21 1006.6
20260905034532 88 331 7.8 18.2 0.00 0.00 0.00 21 1006.5
20260905033032 90 305 11.3 16.5 0.00 0.00 0.00 19 1006.2
20260905031536 89 286 7.0 15.6 0.00 0.00 0.00 20 1005.8
20260905030036 90 320 11.3 16.5 0.00 0.00 0.00 21 1005.6
20260905024534 89 302 11.3 17.4 0.00 0.00 0.00 21 1005.6
20260905023034 90 294 8.7 13.9 0.00 0.00 0.00 22 1005.6
20260905021536 92 319 7.8 13.9 0.00 0.00 0.00 21 1005.6
20260905020031 92 319 11.3 20.0 0.00 0.00 0.00 20 1005.2
20260905014531 93 309 12.2 18.2 0.00 0.00 0.00 20 1005.1
20260905013030 94 302 13.0 19.1 0.00 0.00 0.00 20 1005.1
20260905011529 95 264 10.4 20.0 0.00 0.00 0.00 19 1005.2
20260905010030 96 308 9.6 19.1 0.00 0.00 0.00 19 1005.2
20260905004530 98 298 11.3 20.9 0.00 0.00 0.00 17 1005.1
20260905003029 99 288 9.6 20.0 0.00 0.00 0.00 16 1005.0
20260905001528 99 287 11.3 17.4 0.00 0.00 0.00 15 1004.8
20260905000030 101 277 9.6 15.6 0.00 0.00 0.00 14 1004.9
20260904234539 101 273 8.7 16.5 0.00 0.00 0.00 13 1004.9
20260904233043 101 224 9.6 17.4 0.00 0.00 0.00 12 1004.9
20260904231526 103 286 9.6 14.8 0.00 0.00 0.00 12 1005.2
20260904230033 103 317 10.4 16.5 0.00 0.00 0.00 11 1005.3
20260904224540 103 288 9.6 15.6 0.00 0.00 0.00 11 1005.3
20260904223037 104 272 6.1 12.2 0.00 0.00 0.00 10 1005.4
20260904221526 104 298 1.7 9.6 0.00 0.00 0.00 9 1005.4
20260904220020 104 21 2.6 7.8 0.00 0.00 0.00 8 1005.7
20260904214534 103 225 0.9 7.8 0.00 0.00 0.00 8 1005.6
20260904213014 103 107 1.7 10.4 0.00 0.00 0.00 8 1005.7
20260904211513 102 102 2.6 10.4 0.00 0.00 0.00 8 1005.7
20260904210008 102 110 4.3 9.6 0.00 0.00 0.00 8 1006.0
20260904204506 101 111 3.5 9.6 0.00 0.00 0.00 9 1006.0
20260904203005 100 120 7.0 12.2 0.00 0.00 0.00 9 1006.2
20260904201604 100 150 2.6 8.7 0.00 0.00 0.00 9 1006.5
20260904194603 99 105 6.1 12.2 0.00 0.00 0.00 9 1007.0
20260904193054 98 161 7.0 9.6 0.00 0.00 0.00 9 1007.2
20260904191552 97 179 6.1 10.4 0.00 0.00 0.00 9 1007.5
20260904190049 97 92 4.3 12.2 0.00 0.00 0.00 9 1007.8
20260904184600 97 166 3.5 10.4 0.00 0.00 0.00 10 1008.0
20260904183044 96 150 5.2 7.8 0.00 0.00 0.00 10 1008.1
20260904181542 95 112 6.1 7.8 0.00 0.00 0.00 10 1008.3
20260904180054 95 98 5.2 10.4 0.00 0.00 0.00 10 1008.2
20260904174538 95 134 4.3 9.6 0.00 0.00 0.00 10 1008.4
20260904173031 94 168 2.6 7.8 0.00 0.00 0.00 10 1008.4
20260904171528 94 159 4.3 6.1 0.00 0.00 0.00 10 1008.2
20260904170023 93 124 2.6 4.3 0.00 0.00 0.00 10 1008.2